{"data":{"norad_id":69549,"intl_designator":"2026-135D","name":"STARLINK-37871","alt_names":[],"object_type":"PAYLOAD","status":"ACTIVE","operator":null,"country":"US","launch_date":"2026-06-15","launch_site_code":"AFWTR","launch_vehicle":null,"mission":null,"orbit_class":"UNKNOWN","rcs_meters":null,"size_class":null,"mass_kg":null,"dimensions":null,"purposes":["comms"],"wikipedia_slug":null,"has_3d_model":false,"image_url":null,"decayed_at":null,"tle_current":{"epoch":"2026-09-20T00:31:14.602656Z","epoch_age_seconds":63013,"freshness":"FRESH","line1":"1 69549U 26135D   26263.02169679  .00014322  00000+0  44491-3 0  9995","line2":"2 69549  97.2841 290.6630 0001311 104.6209 255.5179 15.33459290 14921","mean_motion":15.3345929,"eccentricity":0.0001311,"inclination_deg":97.2841,"raan_deg":290.663,"arg_perigee_deg":104.6209,"mean_anomaly_deg":255.5179,"bstar":0.00044491,"rev_number":1492,"period_min":93.905329563721,"perigee_km":464.60345692523,"apogee_km":466.39785871911,"semimajor_km":6843.6376578222,"source":"CELESTRAK","updated_at":"2026-09-20T09:00:44.242202Z"}}}